Portada
METAR-TAF:

METAR-TAF

Aeroports :

Mildura, Austràlia

latitud: 34-13-45S, longitud: 142-05-08E, altitud: 51 m

Observació

L'informe es va fer fa 59 minuts, a les 10:00 UTC
Vent 5 kt del Sud/Sud-Est
Temperatura 15°C
Humitat 27%
Pressió 1022 hPa
Visibilitat 10 km o més

METAR: YMIA 251000Z AUTO 15005KT 9999 // NCD 15/M04 Q1022

Hora: 20:59 (10:59 UTC)


TAF: manca

Observacions i pronòstics meteorològics de més de 4000 aeroports (METAR i TAF).

Les estacions disponibles són els punts grocs i vermells al mapa.

Posi el ratolí al punt desitjat per veure el nom de l'estació.

Feu clic per veure les observacions i els pronòstics meteorològics.

Per canviar el mapa: feu clic els botons verds amb una creu de color negre per apropar; al botó verd amb un guió per allunyar la imatge; o en les fletxes verdes per a mapes adjacents.


METAR-TAF: